Date_and_time,latitude,longitude,wind_speed,RelWindDirFrom,WindDirFrom,air_pressure,air_temperature,relative_humidity,Temp,platform_speed_wrt_ground,air_pressure_at_mean_sea_level,platform_orientation
2019-05-25 23:40,50.6304416666667,-96.9807666666667,17.5,20.8,5,987.45,10.3,77,13.59,0.0,1014.08,48.3
2019-05-25 23:50,50.630445,-96.980765,16.5,20.3,7,987.46,10.0,79,13.61,0.0,1014.13,48.3
2019-05-26 00:00,50.6304666666667,-96.9807966666667,15.8,18.9,4,987.61,9.7,79,13.56,0.0,1014.30,321.3
2019-05-26 00:10,50.630445,-96.9807566666667,16.4,19.4,12,987.60,9.4,85,13.51,0.0,1014.31,321.3
2019-05-26 00:20,50.630445,-96.980765,17.7,20.2,15,987.62,9.2,87,13.48,0.0,1014.36,321.3
2019-05-26 00:30,50.630435,-96.98074,17.3,20.4,7,987.81,9.2,86,13.45,0.0,1014.58,321.3
2019-05-26 00:40,50.6304433333333,-96.98075,16.9,20.7,4,988.03,9.2,84,13.43,0.0,1014.83,321.3
2019-05-26 00:50,50.6304366666667,-96.9807583333333,16.7,21.0,359,988.14,9.0,83,13.35,0.0,1014.96,321.3
2019-05-26 01:00,50.630435,-96.98076,16.1,20.8,356,988.21,8.8,85,13.35,0.0,1015.06,345.5
2019-05-26 01:10,50.63044,-96.9807833333333,14.3,19.5,351,988.36,8.5,86,13.32,0.0,1015.25,345.5
2019-05-26 01:20,50.6304366666667,-96.9807716666667,13.0,17.6,346,988.57,8.0,86,13.26,0.0,1015.50,345.5
2019-05-26 01:30,50.6304333333333,-96.980775,11.5,17.3,341,988.78,7.9,87,13.20,0.0,1015.76,345.5
2019-05-26 01:40,50.6304383333333,-96.9807666666667,11.8,17.0,342,988.86,7.8,87,13.14,0.0,1015.87,345.5
2019-05-26 01:50,50.6304383333333,-96.9807666666667,11.8,17.1,346,988.91,7.8,86,13.07,0.0,1015.93,345.5
2019-05-26 02:00,50.630445,-96.9807366666667,10.6,15.6,335,989.25,7.8,84,13.03,0.0,1016.29,90.0
2019-05-26 02:10,50.630435,-96.98076,9.9,13.9,338,989.34,7.7,85,13.01,0.0,1016.40,90.0
2019-05-26 02:20,50.6304383333333,-96.9807633333333,10.7,18.2,336,989.34,7.6,86,13.02,0.0,1016.40,90.0
2019-05-26 02:30,50.63044,-96.9807666666667,10.1,17.7,330,989.74,7.6,86,13.07,0.0,1016.82,90.0
2019-05-26 02:40,50.63044,-96.980765,10.1,16.4,336,989.80,7.6,86,13.11,0.0,1016.88,90.0
2019-05-26 02:50,50.6304033333333,-96.9807516666667,9.7,14.0,336,989.86,7.5,85,13.14,0.0,1016.96,90.0
2019-05-26 03:00,50.6304433333333,-96.9807616666667,9.9,13.8,335,990.00,7.5,86,13.17,0.0,1017.13,139.7
2019-05-26 03:10,50.6304566666667,-96.9807616666667,9.2,12.8,333,990.22,7.4,87,13.14,0.0,1017.37,139.7
2019-05-26 03:20,50.63044,-96.980755,9.2,13.5,337,990.29,7.2,93,13.12,0.0,1017.47,139.7
2019-05-26 03:30,50.63044,-96.9807583333333,8.5,12.1,337,990.49,7.0,99,13.11,0.0,1017.68,139.7
2019-05-26 03:40,50.6304383333333,-96.9807616666667,8.6,11.2,339,990.57,6.8,99,13.14,0.0,1017.78,139.7
2019-05-26 03:50,50.6304366666667,-96.9807633333333,7.5,10.4,333,990.69,6.7,100,13.14,0.0,1017.90,139.7
2019-05-26 04:00,50.630435,-96.9807633333333,8.6,11.2,330,990.74,6.6,100,13.14,0.0,1017.96,270.0
2019-05-26 04:10,50.6304383333333,-96.9807566666667,8.2,12.1,341,990.83,6.5,100,13.15,0.0,1018.06,270.0
2019-05-26 04:20,50.6304383333333,-96.980755,11.5,19.3,357,990.77,7.0,100,13.16,0.0,1017.98,270.0
2019-05-26 04:30,50.630435,-96.9807716666667,16.3,20.1,5,990.82,7.6,100,13.17,0.0,1017.99,270.0
2019-05-26 04:40,50.6304283333333,-96.98076,18.7,22.1,15,990.68,7.9,97,13.17,0.0,1017.85,270.0
2019-05-26 04:50,50.6304316666667,-96.9807616666667,19.0,22.3,19,990.72,7.8,96,13.14,0.0,1017.89,270.0
2019-05-26 05:00,50.6304333333333,-96.980765,18.1,21.4,20,990.85,7.8,92,13.11,0.0,1018.04,240.8
2019-05-26 05:10,50.6304333333333,-96.9807633333333,16.1,19.2,18,991.17,7.9,89,13.10,0.0,1018.36,240.8
2019-05-26 05:20,50.630435,-96.9807633333333,16.1,18.1,14,991.44,7.9,88,13.09,0.0,1018.66,240.8
2019-05-26 05:30,50.6304366666667,-96.980765,15.4,18.5,10,991.69,7.9,89,13.09,0.0,1018.92,240.8
2019-05-26 05:40,50.6304366666667,-96.980765,16.3,19.6,16,991.76,7.9,87,13.09,0.0,1018.99,240.8
2019-05-26 05:50,50.6304366666667,-96.9807633333333,16.5,19.8,17,991.87,7.9,84,13.10,0.0,1019.11,240.8
2019-05-26 06:00,50.6304366666667,-96.9807616666667,17.7,21.1,16,991.82,8.0,80,13.09,0.0,1019.06,142.0
2019-05-26 06:10,50.6304383333333,-96.9807616666667,18.3,22.3,16,992.10,7.9,77,13.09,0.0,1019.33,142.0
2019-05-26 06:20,50.6304516666667,-96.9807716666667,18.2,22.1,16,992.22,7.8,75,13.09,0.0,1019.43,142.0
2019-05-26 06:30,50.630445,-96.98077,17.9,21.4,19,992.29,7.7,75,13.08,0.0,1019.49,142.0
2019-05-26 06:40,50.630445,-96.980765,17.1,20.2,22,992.47,7.7,75,13.08,0.0,1019.68,142.0
2019-05-26 06:50,50.6304433333333,-96.9807616666667,17.6,21.4,18,992.36,7.6,76,13.05,0.0,1019.58,142.0
2019-05-26 07:00,50.6304416666667,-96.9807616666667,16.5,20.3,17,992.66,7.6,77,13.04,0.0,1019.88,48.3
2019-05-26 07:10,50.6304416666667,-96.98076,17.7,20.8,23,992.60,7.6,77,13.04,0.0,1019.82,48.3
2019-05-26 07:20,50.6304416666667,-96.9807583333333,17.2,20.4,21,992.70,7.5,77,13.04,0.0,1019.93,48.3
2019-05-26 07:30,50.6304416666667,-96.98076,15.7,18.6,24,992.92,7.5,78,13.03,0.0,1020.14,48.3
2019-05-26 07:40,50.6304416666667,-96.9807583333333,15.8,19.5,19,992.92,7.5,80,13.03,0.0,1020.15,48.3
2019-05-26 07:50,50.63044,-96.9807583333333,16.3,20.0,22,992.88,7.4,80,13.01,0.0,1020.10,48.3
2019-05-26 08:00,50.63041,-96.9807566666667,14.9,18.7,28,993.15,7.4,80,12.99,0.0,1020.39,360.0
2019-05-26 08:10,50.6304233333333,-96.98076,14.5,17.9,28,993.38,7.3,79,12.98,0.0,1020.63,360.0
2019-05-26 08:20,50.6304433333333,-96.980765,15.0,18.7,29,993.41,7.4,80,12.97,0.0,1020.67,360.0
2019-05-26 08:30,50.6304466666667,-96.98076,15.2,17.9,26,993.56,7.4,80,12.97,0.0,1020.82,360.0
2019-05-26 08:40,50.6304466666667,-96.98076,15.7,18.4,29,993.83,7.4,80,12.97,0.0,1021.10,360.0
2019-05-26 08:50,50.63042,-96.980755,15.2,18.0,31,993.80,7.3,80,12.97,0.0,1021.08,360.0
2019-05-26 09:00,50.6304333333333,-96.9807533333333,15.5,18.7,37,993.77,7.4,78,12.95,0.0,1021.04,131.7
2019-05-26 09:10,50.6304383333333,-96.9807566666667,15.3,18.0,38,994.26,7.3,74,12.95,0.0,1021.56,131.7
2019-05-26 09:20,50.6304383333333,-96.9807566666667,16.0,18.9,31,994.30,7.3,73,12.96,0.0,1021.60,131.7
2019-05-26 09:30,50.63044,-96.9807566666667,15.6,19.1,38,994.39,7.2,72,12.96,0.0,1021.70,131.7
2019-05-26 09:40,50.6304516666667,-96.98077,15.1,18.2,40,994.44,7.2,73,12.94,0.0,1021.75,131.7
2019-05-26 09:50,50.63045,-96.9807666666667,15.4,18.5,48,994.41,7.1,74,12.93,0.0,1021.72,131.7
2019-05-26 10:00,50.6304466666667,-96.9807633333333,14.3,18.2,47,994.60,7.0,79,12.92,0.0,1021.93,347.4
2019-05-26 10:10,50.6304433333333,-96.98076,15.2,18.7,41,994.55,6.8,78,12.89,0.0,1021.88,347.4
2019-05-26 10:20,50.6304433333333,-96.9807616666667,14.6,17.6,42,994.72,6.8,79,12.85,0.0,1022.06,347.4
2019-05-26 11:10,50.63047,-96.9807716666667,14.4,17.6,45,995.17,6.7,79,12.77,0.0,1022.53,18.9
2019-05-26 11:20,50.63044,-96.9807733333333,15.4,18.8,46,995.16,6.6,76,12.77,0.0,1022.53,18.9
2019-05-26 11:30,50.63044,-96.9807666666667,15.2,18.6,51,995.31,6.6,75,12.78,0.0,1022.68,18.9
2019-05-26 11:40,50.63044,-96.9807633333333,14.8,18.8,53,995.54,6.6,73,12.75,0.0,1022.92,18.9
2019-05-26 11:50,50.63044,-96.9807616666667,14.7,17.4,57,995.68,6.7,72,12.74,0.0,1023.07,18.9
2019-05-26 12:00,50.63044,-96.9807616666667,14.7,18.3,55,995.71,6.7,71,12.72,0.0,1023.11,345.5
2019-05-26 12:10,50.63044,-96.98076,15.7,19.2,57,995.75,6.8,69,12.72,0.0,1023.14,345.5
2019-05-26 12:20,50.6304466666667,-96.9807816666667,15.3,19.1,61,995.85,6.6,71,12.71,0.0,1023.26,345.5
2019-05-26 12:30,50.6304483333333,-96.9807616666667,15.2,18.3,63,996.04,6.5,71,12.71,0.0,1023.46,345.5
2019-05-26 12:40,50.6304433333333,-96.9807583333333,15.5,18.1,62,996.28,6.4,65,12.69,0.0,1023.71,345.5
2019-05-26 12:50,50.63044,-96.980755,14.6,17.2,66,996.41,6.4,69,12.66,0.0,1023.85,345.5
2019-05-26 13:00,50.6304383333333,-96.980755,14.9,18.5,61,996.37,6.1,69,12.65,0.0,1023.82,131.7
2019-05-26 13:10,50.6304333333333,-96.9807733333333,14.4,16.9,64,996.53,6.3,67,12.66,0.0,1023.98,131.7
2019-05-26 13:20,50.6304316666667,-96.9807616666667,12.6,15.7,64,996.70,6.4,67,12.67,0.0,1024.15,131.7
2019-05-26 13:30,50.630435,-96.980765,13.5,16.5,62,996.62,6.3,66,12.64,0.0,1024.08,131.7
2019-05-26 13:40,50.6304366666667,-96.9807616666667,14.4,18.0,63,996.23,6.2,67,12.62,0.0,1023.68,131.7
2019-05-26 13:50,50.6304366666667,-96.980765,14.3,18.8,60,996.34,6.3,64,12.63,0.0,1023.79,131.7
2019-05-26 14:00,50.6304366666667,-96.9807666666667,12.5,15.8,62,996.82,6.5,64,12.66,0.0,1024.26,228.3
2019-05-26 14:10,50.6304383333333,-96.9807683333333,12.5,15.5,58,996.97,6.3,63,12.67,0.0,1024.43,228.3
2019-05-26 14:20,50.6304383333333,-96.9807683333333,13.4,17.5,58,996.87,6.2,62,12.68,0.0,1024.34,228.3
2019-05-26 14:30,50.6304383333333,-96.9807666666667,13.2,16.1,55,996.98,6.2,62,12.68,0.0,1024.46,228.3
2019-05-26 14:40,50.6304383333333,-96.980765,12.3,15.7,55,997.41,6.1,61,12.70,0.0,1024.91,228.3
2019-05-26 14:50,50.6304466666667,-96.9807783333333,11.3,15.2,52,997.52,6.2,62,12.70,0.0,1025.03,228.3
2019-05-26 15:00,50.6304466666667,-96.98078,11.9,15.0,43,997.46,6.1,59,12.69,0.0,1024.96,286.8
2019-05-26 15:10,50.630445,-96.980775,12.1,16.5,41,997.47,6.2,61,12.66,0.0,1024.97,286.8
2019-05-26 15:20,50.6304433333333,-96.9807716666667,12.2,15.5,36,997.45,6.2,60,12.64,0.0,1024.95,286.8
2019-05-26 15:30,50.6304416666667,-96.9807683333333,12.4,14.9,32,997.42,6.2,62,12.61,0.0,1024.92,286.8
2019-05-26 15:40,50.6304416666667,-96.9807666666667,13.0,15.4,27,997.29,6.1,62,12.57,0.0,1024.79,286.8
2019-05-26 15:50,50.6304383333333,-96.9807666666667,12.4,15.6,29,997.36,6.1,62,12.57,0.0,1024.85,286.8
2019-05-26 16:00,50.63043,-96.98076,13.0,16.6,27,997.48,6.2,61,12.60,0.0,1024.98,360.0
2019-05-26 16:10,50.6304233333333,-96.9807566666667,13.0,16.6,36,997.42,6.2,60,12.61,0.0,1024.92,360.0
2019-05-26 16:20,50.6304233333333,-96.9807583333333,12.1,15.9,29,997.45,6.2,62,12.63,0.0,1024.95,360.0
2019-05-26 16:30,50.6304333333333,-96.980775,12.1,15.5,40,997.52,6.4,60,12.62,0.0,1025.02,360.0
2019-05-26 16:40,50.6304366666667,-96.98077,11.5,15.9,40,997.44,6.3,60,12.62,0.0,1024.94,360.0
2019-05-26 16:50,50.6304366666667,-96.9807666666667,10.9,15.6,33,997.50,6.3,61,12.60,0.0,1025.00,360.0
2019-05-26 17:00,50.6304333333333,-96.980765,11.4,15.7,31,997.48,6.5,62,12.60,0.0,1024.97,142.0
2019-05-26 17:10,50.6304266666667,-96.98076,11.4,16.1,20,997.55,6.3,61,12.62,0.0,1025.05,142.0
2019-05-26 17:20,50.6304316666667,-96.9807616666667,11.5,14.6,20,997.59,6.5,61,12.62,0.0,1025.09,142.0
2019-05-26 17:30,50.630435,-96.9807583333333,11.7,15.8,15,997.56,6.4,61,12.64,0.0,1025.05,142.0
2019-05-26 17:40,50.630435,-96.9807583333333,10.3,13.7,18,997.62,6.5,59,12.66,0.0,1025.12,142.0
2019-05-26 17:50,50.630435,-96.9807583333333,9.7,13.6,20,997.64,6.7,59,12.68,0.0,1025.12,142.0
2019-05-26 18:00,50.6304366666667,-96.9807583333333,10.3,12.8,19,997.58,6.7,58,12.69,0.0,1025.06,122.3
2019-05-26 18:10,50.6304366666667,-96.9807583333333,10.9,14.3,21,997.51,6.9,59,12.71,0.0,1024.98,122.3
2019-05-26 18:20,50.6304366666667,-96.9807583333333,10.7,13.0,21,997.46,7.1,60,12.72,0.0,1024.90,122.3
2019-05-26 18:30,50.63042,-96.9807583333333,10.6,13.6,12,997.37,7.1,59,12.72,0.0,1024.82,122.3
2019-05-26 18:40,50.6304333333333,-96.9807616666667,10.7,13.4,15,997.31,7.2,58,12.74,0.0,1024.76,122.3
2019-05-26 18:50,50.630435,-96.9807633333333,10.3,13.7,11,997.21,7.3,58,12.76,0.0,1024.63,122.3
2019-05-26 19:00,50.6304383333333,-96.9807633333333,11.0,13.3,7,997.05,7.4,56,12.78,0.0,1024.47,360.0
2019-05-26 19:10,50.63044,-96.9807633333333,12.2,14.2,12,996.95,7.7,54,12.78,0.0,1024.35,360.0
2019-05-26 19:20,50.63044,-96.9807616666667,11.3,13.6,11,996.97,7.8,54,12.79,0.0,1024.36,360.0
2019-05-26 19:30,50.6304366666667,-96.980785,11.6,13.4,8,996.90,8.0,53,12.79,0.0,1024.28,360.0
2019-05-26 19:40,50.6304366666667,-96.98077,11.2,13.7,11,996.95,8.2,52,12.79,0.0,1024.31,360.0
2019-05-26 19:50,50.630405,-96.980775,11.0,13.4,7,996.91,8.3,53,12.80,0.0,1024.26,360.0
2019-05-26 20:00,50.6304266666667,-96.9807633333333,9.5,11.3,10,996.93,8.5,51,12.80,0.0,1024.27,360.0
2019-05-26 20:10,50.63044,-96.9807366666667,9.3,11.9,11,996.91,8.5,49,12.80,0.0,1024.24,360.0
2019-05-26 20:20,50.6304333333333,-96.9807416666667,9.6,12.2,11,996.80,8.7,50,12.83,0.0,1024.11,360.0
2019-05-26 20:30,50.6304383333333,-96.980765,9.5,11.5,6,996.75,8.8,49,12.84,0.0,1024.05,360.0
2019-05-26 20:40,50.630435,-96.9807583333333,9.4,11.1,11,996.84,9.0,49,12.87,0.0,1024.13,360.0
2019-05-26 20:50,50.6304516666667,-96.9807633333333,8.7,10.7,8,996.84,9.2,47,12.87,0.0,1024.12,360.0
2019-05-26 21:00,50.630445,-96.9807566666667,8.8,10.6,8,996.78,9.3,46,12.87,0.0,1024.03,38.0
2019-05-26 21:10,50.6304466666667,-96.98076,8.6,9.9,13,996.76,9.5,46,12.87,0.0,1024.00,38.0
2019-05-26 21:20,50.630445,-96.9807766666667,9.0,10.5,9,996.64,9.7,46,12.87,0.0,1023.85,38.0
2019-05-26 21:30,50.6304233333333,-96.980755,9.0,10.8,10,996.51,10.0,43,12.92,0.0,1023.70,38.0
2019-05-26 21:40,50.6304433333333,-96.9807483333333,9.1,10.8,9,996.42,10.1,42,12.95,0.0,1023.60,38.0
2019-05-26 21:50,50.6304366666667,-96.9807666666667,8.7,10.7,12,996.36,10.3,44,12.99,0.0,1023.52,38.0
2019-05-26 22:00,50.6304366666667,-96.9807633333333,8.6,10.2,11,996.33,10.4,46,13.02,0.0,1023.48,360.0
2019-05-26 22:10,50.6304433333333,-96.9807616666667,7.6,9.7,9,996.30,10.6,43,13.02,0.0,1023.43,360.0
2019-05-26 22:20,50.630425,-96.9807683333333,7.2,8.9,10,996.33,10.9,41,13.03,0.0,1023.44,360.0
2019-05-26 22:30,50.63045,-96.9807583333333,7.1,8.9,14,996.21,11.0,41,13.01,0.0,1023.31,360.0
2019-05-26 22:40,50.63045,-96.9807666666667,6.6,8.6,10,996.25,11.1,40,13.06,0.0,1023.33,360.0
2019-05-26 22:50,50.6304466666667,-96.9807633333333,7.3,9.1,15,996.17,11.3,39,13.02,0.0,1023.24,360.0
2019-05-26 23:00,50.6304466666667,-96.9807633333333,7.4,9.1,10,996.12,11.3,40,12.97,0.0,1023.17,360.0
2019-05-26 23:10,50.6304516666667,-96.9807766666667,8.0,9.1,10,996.02,11.4,38,12.99,0.0,1023.05,360.0
2019-05-26 23:20,50.6304266666667,-96.9807633333333,7.6,8.6,12,995.91,11.5,39,13.01,0.0,1022.92,360.0
2019-05-26 23:30,50.6304333333333,-96.9807683333333,7.6,8.6,12,995.84,11.5,43,13.01,0.0,1022.85,360.0
